Regional Weather Roundup
Issued by NWS

Home | Current Version | Previous Version | Graphics & Text | Print | Product List | Glossary On
Versions: 1 2 3 4 5 6 7 8 9 10 11 12 13 14 15 16 17 18 19 20 21 22 23 24 25 26 27 28 29 30 31 32 33 34 35 36 37 38 39 40 41 42 43 44 45 46 47 48 49 50
000
ASUS43 KTOP 281608
RWRKS

WEATHER ROUNDUP FOR KANSAS
NATIONAL WEATHER SERVICE GOODLAND KS
1100 AM CDT FRI AUG 28 2015

NOTE:  "FAIR" INDICATES FEW OR NO CLOUDS BELOW 12,000 FEET WITH NO
SIGNIFICANT WEATHER AND/OR OBSTRUCTIONS TO VISIBILITY.

KSZ001>006-013>018-027>032-041>047-281700-
NORTHWEST KANSAS

CITY           SKY/WX    TMP DP  RH WIND       PRES   REMARKS
GOODLAND       SUNNY     80  52  37 NW18      30.08R
HAYS           SUNNY     81  63  54 NW13      29.95S
HILL CITY      SUNNY     81  62  52 N10       29.97R
RUSSELL        SUNNY     81  68  64 NW10      29.92S
$$

KSZ061>065-074>080-084>089-281700-
SOUTHWEST KANSAS

CITY           SKY/WX    TMP DP  RH WIND       PRES   REMARKS
DODGE CITY     SUNNY     79  62  56 NW10      30.02R
ELKHART          N/A     78  61  55 N6          N/A
GARDEN CITY    SUNNY     80  59  48 N12       30.04S
GREAT BEND     MOSUNNY   81  66  61 NW13      29.95R
LIBERAL        SUNNY     81  66  61 N12       30.06R
PRATT          SUNNY     81  64  57 NW10      29.98R
$$

KSZ066>073-081>083-090>101-281700-
SOUTHEAST KANSAS

CITY           SKY/WX    TMP DP  RH WIND       PRES   REMARKS
CHANUTE        RAIN      68  65  90 S13       30.02R
COFFEYVILLE    LGT RAIN  69  66  90 SE12      30.01F
HUTCHINSON     MOSUNNY   82  66  58 SW16G23   29.94R
MEDICINE LODGE   N/A     79  69  71 SW5       29.95S
NEWTON         MOSUNNY   79  63  57 S21G28    29.96S
WICHITA INTL   PTSUNNY   77  67  71 S18       29.94S
WICHITA JABRA  PTSUNNY   76  67  73 S18       29.95R
WICHITA MCCONL PTSUNNY   75  66  72 SE14      29.95R
WINFIELD       CLOUDY    76  66  71 S12       29.98R
$$

KSZ007>012-019>026-033>040-048>060-102>105-281700-
NORTHEAST KANSAS

CITY           SKY/WX    TMP DP  RH WIND       PRES   REMARKS
CONCORDIA      CLOUDY    76  68  76 SW12      29.89S
EMPORIA        CLOUDY    73  68  84 S15G22    29.94F
LAWRENCE       CLOUDY    70  66  87 S14G24    29.95F
MANHATTAN      SUNNY     81  68  64 SW16      29.89S
MARYSVILLE     SUNNY    N/A N/A N/A S17G23    29.87S
OLATHE IND     CLOUDY    69  66  90 S13       29.99R
OLATHE EXE     LGT RAIN  68  65  90 S9        29.99R
SALINA         MOSUNNY   83  68  60 SW14      29.90S
TOPEKA BILLARD CLOUDY    72  68  87 S10       29.93R
TOPEKA FORBES  CLOUDY    73  67  81 S13       29.94R
$$


USA.gov is the U.S. government's official web portal to all federal, state and local government web resources and services.